Hoquiam, WA
on Friday, November 23, 2012

Friday
Previous Day Next Day
Daily Summary
 ActualAverageRecord
Temperature
Mean Temperature °F 44°F  
Max Temperature 53°F 50°F 58°F (1954)
Min Temperature 44°F 39°F 18°F (1985)
Degree Days
Heating Degree Days 16 21  
Month to date heating degree days 425  
Cooling Degree Days 0 0  
Month to date cooling degree days 0  
Year to date cooling degree days 23  
Moisture
Dew Point 49°F   
Average Humidity 96    
Maximum Humidity 100    
Minimum Humidity 88    
Precipitation
Precipitation 1.52 in 0.38 in 2.11 in (1964)
Month to date precipitation 8.54  
Year to date precipitation 54.96  
Wind
Wind Speed 10 mph   
Max Wind Speed 20 mph   
Max Gust Speed 31 mph   
Visibility 4 miles   
Events Rain   

Key: T is trace of precipitation, MM is missing value
Source: NWS Daily Summary
Time(PST)TemperatureDew PointHumidity Pressure Visibility Wind DirectionWind SpeedGust SpeedPrecipitationEvents Conditions
12:53 AM 45.0°F 42.1°F 90% 30.16 in 10.0 miles ENE 10.4 mph - 0.01 in Rain Light Rain
1:06 AM 44.6°F 42.8°F 93% 30.15 in 10.0 miles ENE 11.5 mph - 0.01 in Rain Light Rain
1:21 AM 44.6°F 42.8°F 93% 30.14 in 9.0 miles ENE 10.4 mph - 0.03 in Rain Light Rain
1:53 AM 45.0°F 43.0°F 93% 30.14 in 7.0 miles ENE 11.5 mph - 0.06 in Rain Light Rain
2:53 AM 45.0°F 43.0°F 93% 30.12 in 10.0 miles ENE 10.4 mph - 0.06 in Rain Light Rain
3:53 AM 46.0°F 43.0°F 89% 30.10 in 6.0 miles NE 10.4 mph - 0.03 in Rain Light Rain
4:53 AM 48.0°F 45.0°F 89% 30.09 in 7.0 miles NE 4.6 mph - 0.06 in Rain Light Rain
5:11 AM 48.2°F 46.4°F 93% 30.07 in 4.0 miles ENE 4.6 mph - 0.05 in Rain Rain
5:51 AM 48.2°F 46.4°F 93% 30.07 in 2.5 miles East 5.8 mph - 0.17 in Rain Rain
5:53 AM 46.9°F 46.0°F 97% 30.08 in 2.5 miles East 5.8 mph - 0.17 in Rain Rain
6:01 AM 46.4°F 44.6°F 93% 30.06 in 4.0 miles East 9.2 mph - 0.01 in Rain Light Rain
6:20 AM 51.8°F 48.2°F 88% 30.06 in 6.0 miles SSE 15.0 mph 21.9 mph 0.03 in Rain Light Rain
6:30 AM 51.8°F 48.2°F 88% 30.06 in 9.0 miles SSE 15.0 mph 23.0 mph 0.04 in Rain Light Rain
6:53 AM 51.1°F 48.9°F 92% 30.07 in 6.0 miles SSE 16.1 mph 25.3 mph 0.07 in Rain Light Rain
7:53 AM 51.1°F 50.0°F 96% 30.08 in 4.0 miles South 13.8 mph - 0.15 in Rain Rain
8:27 AM 51.8°F 50.0°F 94% 30.08 in 4.0 miles SSE 13.8 mph - 0.06 in Rain Light Rain
8:53 AM 51.1°F 50.0°F 96% 30.09 in 1.8 miles South 10.4 mph - 0.13 in Rain Rain
9:10 AM 51.8°F 50.0°F 94% 30.08 in 2.5 miles South 12.7 mph - 0.04 in Rain Light Rain
9:21 AM 51.8°F 50.0°F 94% 30.08 in 1.2 miles South 10.4 mph - 0.10 in Rain Rain
9:46 AM 51.8°F 51.8°F 100% 30.08 in 2.5 miles South 10.4 mph - N/A Rain Rain
9:53 AM 52.0°F 51.1°F 97% 30.09 in 4.0 miles South 10.4 mph - 0.20 in Rain Light Rain
10:01 AM 51.8°F 51.8°F 100% 30.08 in 2.0 miles South 15.0 mph - 0.03 in Rain Rain
10:10 AM 51.8°F 51.8°F 100% 30.08 in 1.8 miles South 13.8 mph - 0.06 in Rain Light Rain
10:14 AM 51.8°F 51.8°F 100% 30.08 in 2.0 miles South 17.3 mph - 0.06 in Rain Light Rain
10:23 AM 51.8°F 51.8°F 100% 30.08 in 3.0 miles South 19.6 mph 26.5 mph 0.07 in Rain Light Rain
10:32 AM 53.6°F 51.8°F 94% 30.08 in 2.5 miles South 18.4 mph 28.8 mph 0.09 in Rain Light Rain
10:48 AM 53.6°F 51.8°F 94% 30.08 in 5.0 miles South 18.4 mph 31.1 mph 0.11 in Rain Light Rain
10:53 AM 53.1°F 51.1°F 93% 30.09 in 8.0 miles South 18.4 mph 27.6 mph 0.11 in Rain Light Rain
11:25 AM 51.8°F 51.8°F 100% 30.07 in 1.8 miles South 17.3 mph - 0.02 in Rain Light Rain
11:40 AM 51.8°F 51.8°F 100% 30.06 in 2.0 miles South 16.1 mph 24.2 mph 0.03 in Rain Light Rain
11:44 AM 51.8°F 51.8°F 100% 30.06 in 1.8 miles South 15.0 mph - 0.03 in Rain Light Rain
11:53 AM 52.0°F 51.1°F 97% 30.07 in 1.8 miles SSW 13.8 mph - 0.03 in   Overcast
12:03 PM 51.8°F 51.8°F 100% 30.06 in 1.8 miles SSW 16.1 mph - 0.02 in Rain Rain
12:10 PM 51.8°F 50.0°F 94% 30.06 in 1.2 miles SSW 17.3 mph - N/A Rain Rain
12:27 PM 51.8°F 51.8°F 100% 30.05 in 2.0 miles SSW 12.7 mph - 0.11 in Rain Rain
12:38 PM 51.8°F 50.0°F 94% 30.06 in 1.8 miles WSW 9.2 mph - 0.16 in Rain Rain
12:53 PM 51.1°F 51.1°F 100% 30.06 in 1.8 miles SW 5.8 mph - 0.22 in Rain Rain
1:01 PM 51.8°F 51.8°F 100% 30.03 in 2.5 miles WSW 4.6 mph - 0.01 in Rain Light Rain
1:18 PM 51.8°F 51.8°F 100% 30.04 in 1.5 miles SW 5.8 mph - 0.04 in Rain Light Rain
1:23 PM 51.8°F 50.0°F 94% 30.04 in 2.0 miles WSW 6.9 mph - 0.04 in Rain Light Rain
1:35 PM 51.8°F 50.0°F 94% 30.03 in 1.0 miles Variable 3.5 mph - 0.07 in Rain Light Rain
1:53 PM 51.1°F 51.1°F 100% 30.04 in 3.0 miles SSW 4.6 mph - 0.13 in Rain Light Rain
2:11 PM 51.8°F 51.8°F 100% 30.03 in 1.8 miles South 11.5 mph 18.4 mph 0.02 in Rain Light Rain
2:25 PM 51.8°F 51.8°F 100% 30.02 in 2.5 miles South 10.4 mph - 0.05 in Rain Light Rain
2:32 PM 51.8°F 51.8°F 100% 30.02 in 6.0 miles South 8.1 mph - 0.05 in Rain Light Rain
2:53 PM 52.0°F 51.1°F 97% 30.04 in 10.0 miles West 6.9 mph - 0.05 in   Overcast
3:17 PM 51.8°F 50.0°F 94% 30.04 in 2.5 miles West 9.2 mph - N/A   Overcast
3:24 PM 51.8°F 50.0°F 94% 30.04 in 3.0 miles West 6.9 mph - N/A   Overcast
3:33 PM 51.8°F 50.0°F 94% 30.04 in 4.0 miles West 6.9 mph - N/A   Overcast
3:53 PM 51.1°F 48.9°F 92% 30.06 in 9.0 miles West 8.1 mph - N/A   Overcast
4:27 PM 50.0°F 48.2°F 94% 30.05 in 2.0 miles SSW 4.6 mph - N/A   Overcast
4:32 PM 48.2°F 48.2°F 100% 30.05 in 1.8 miles SSW 4.6 mph - N/A   Overcast
4:48 PM 48.2°F 48.2°F 100% 30.05 in 1.5 miles SSW 5.8 mph - N/A   Overcast
4:53 PM 48.9°F 48.9°F 100% 30.07 in 1.5 miles SW 5.8 mph - 0.01 in   Overcast
5:07 PM 48.2°F 48.2°F 100% 30.06 in 1.5 miles SSW 6.9 mph - N/A   Overcast
5:13 PM 50.0°F 48.2°F 94% 30.06 in 3.0 miles SW 5.8 mph - N/A   Overcast
5:53 PM 50.0°F 48.9°F 96% 30.08 in 4.0 miles SW 9.2 mph - N/A   Overcast
6:23 PM 50.0°F 48.2°F 94% 30.08 in 7.0 miles SW 6.9 mph - N/A   Overcast
6:53 PM 48.9°F 48.0°F 97% 30.09 in 9.0 miles WSW 6.9 mph - N/A   Overcast
7:01 PM 48.2°F 48.2°F 100% 30.08 in 9.0 miles West 6.9 mph - N/A   Overcast
7:53 PM 48.9°F 48.0°F 97% 30.10 in 8.0 miles WSW 5.8 mph - N/A   Clear
8:29 PM 50.0°F 48.2°F 94% 30.10 in 10.0 miles West 4.6 mph - N/A   Mostly Cloudy
8:53 PM 48.9°F 48.0°F 97% 30.12 in 9.0 miles West 3.5 mph - N/A   Scattered Clouds
9:53 PM 46.9°F 46.0°F 97% 30.14 in 6.0 miles Calm Calm - N/A   Mostly Cloudy
10:53 PM 48.0°F 46.0°F 93% 30.16 in 4.0 miles SSW 3.5 mph - 0.01 in Rain Light Rain
11:53 PM 46.9°F 45.0°F 93% 30.17 in 9.0 miles Calm Calm - 0.02 in Rain Light Rain
Moon Phase
Nov. 23 Nov. 28 Dec. 06 Dec. 13 Dec. 20
Sunrise:07:31 AM (PST) Moon Rise:02:03 PM (PST)11/23
Sunset:04:33 PM (PST) Moon Set:02:40 AM (PST)11/23

Copyright © 2014 The Weather Underground, Inc.